"TOA5","AWS1","CR1000","7964","CR1000.Std.14","CPU:AWS1_114.CR1","64363","TBL110"
"TIMESTAMP","RECORD","Wind_spd_WVc(1)","Wind_spd_WVc(2)","Air_Temp_Avg","Humidity_Avg","SW_upper_Wm2_Avg","Rain_Tot","Press_Avg","Issui_Tot","Depth_cm","SR50A_Raw","Quality","Ground_Temp_Avg(1)","Ground_Temp_Avg(2)","SW_lower_Wm2_Avg","Albedo_Avg","SWC_per(1)","SWC_per(2)","Period(1)","Period(2)"
"TS","RN","","","","","","","","","","","","","","","","","","",""
"","","WVc","WVc","Avg","Avg","Avg","Tot","Avg","Tot","Smp","Smp","Smp","Avg","Avg","Avg","Avg","Smp","Smp","Smp","Smp"
"2017-11-24 00:00:00",315853,0.025,135.8,-3.44,95.1,0,0,860.4769,0,6.329,3.136,303,3.879,4.948,0.1403088,0,53.61,62.48,34.18,36.24
"2017-11-24 00:10:00",315854,0.109,139.9,-3.339,94.9,0,0,860.5085,0.5,7.322,3.126,381,3.879,4.957,0.2275278,0,53.61,62.42,34.18,36.23
"2017-11-24 00:20:00",315855,0.307,133.5,-3.358,96.3,0,0,860.5043,0,6.279,3.137,304,3.879,4.956,0.2161514,0,53.61,62.42,34.18,36.23
"2017-11-24 00:30:00",315856,0.311,123.1,-3.503,98.1,0,0,860.5085,0,7.669,3.124,386,3.879,4.952,0.02654491,0,53.61,62.42,34.18,36.23
"2017-11-24 00:40:00",315857,0.102,118.3,-3.472,99.1,0,0.5,860.5085,0,4.143,3.159,251,3.879,4.956,0.04550556,0,53.56,62.36,34.17,36.21
"2017-11-24 00:50:00",315858,0.388,132,-3.612,98.7,0.007866045,0,860.5401,0,2.155,3.18,198,3.882,4.962,0,0,53.56,62.36,34.17,36.21
"2017-11-24 01:00:00",315859,0.377,123.7,-3.65,98.1,0,0,860.5465,0,1.561,3.186,200,3.882,4.949,0,0,53.61,62.36,34.18,36.21
"2017-11-24 01:10:00",315860,0.689,140.5,-3.695,97.4,0,0,860.5085,0,2.356,3.178,201,3.881,4.958,0,0,53.56,62.36,34.17,36.21
"2017-11-24 01:20:00",315861,0.61,143,-3.703,97.2,0,0,860.5085,0,2.654,3.175,202,3.88,4.954,0,0,53.5,62.3,34.15,36.2
"2017-11-24 01:30:00",315862,0.448,101.7,-3.668,96.8,0,0,860.6961,0,2.753,3.174,202,3.88,4.954,0,0,53.56,62.3,34.17,36.2
"2017-11-24 01:40:00",315863,0.546,136.7,-3.612,96.8,0,0,860.7172,0,2.604,3.175,202,3.88,4.938,0,0,53.5,62.3,34.15,36.2
"2017-11-24 01:50:00",315864,0.669,138.6,-3.693,96.9,0,0,860.7172,0,2.605,3.176,201,3.88,4.942,0,0,53.5,62.24,34.15,36.19
"2017-11-24 02:00:00",315865,0.474,143.6,-3.751,97.4,0,0,860.7615,0,2.654,3.175,211,3.88,4.924,0,0,53.45,62.24,34.14,36.19
"2017-11-24 02:10:00",315866,0.511,141.7,-3.695,96.7,0,0,860.7615,0,2.058,3.181,194,3.88,4.918,0.0113764,0,53.5,62.24,34.15,36.19
"2017-11-24 02:20:00",315867,0.547,115.8,-3.67,94.8,0,0,860.9385,0,1.587,3.186,198,3.88,4.92,0,0,53.45,62.24,34.14,36.19
"2017-11-24 02:30:00",315868,0.328,144.3,-3.674,93.9,0,0,860.8246,0,0.964,3.192,198,3.88,4.919,0,0,53.45,62.18,34.14,36.17
"2017-11-24 02:40:00",315869,0.456,153.1,-3.707,93.2,0,0,860.7615,0,1.107,3.19,199,3.886,4.925,0,0,53.45,62.18,34.14,36.17
"2017-11-24 02:50:00",315870,0.338,139.8,-3.58,91.3,0,0,860.9258,0,0.999,3.191,200,3.9,4.939,0,0,53.45,62.18,34.14,36.17
"2017-11-24 03:00:00",315871,0.19,117.5,-3.519,91.6,0,0,861.0038,0,1.697,3.183,203,3.904,4.943,0.1820388,0,53.45,62.24,34.14,36.19
"2017-11-24 03:10:00",315872,0.189,127.4,-3.396,91,0,0,860.9912,0,4.328,3.156,259,3.899,4.938,0.2275451,0,53.45,62.18,34.14,36.17
"2017-11-24 03:20:00",315873,0.327,83,-3.385,91.6,0,0,860.9617,0,5.813,3.141,286,3.907,4.946,0.2275521,0,53.45,62.18,34.14,36.17
"2017-11-24 03:30:00",315874,0.155,69.94,-3.345,92.5,0,0,861.025,0,5.488,3.145,224,3.915,4.954,0.2237661,0,53.39,62.18,34.13,36.17
"2017-11-24 03:40:00",315875,0.165,118.3,-3.339,93.7,0,0,861.0881,0,5.615,3.143,233,3.915,4.954,0.1820474,0,53.39,62.12,34.13,36.16
"2017-11-24 03:50:00",315876,0.364,125.8,-3.399,93.9,0,0,861.0375,0,4.943,3.15,233,3.912,4.951,0.01517033,0,53.39,62.12,34.13,36.16
"2017-11-24 04:00:00",315877,0.045,11.65,-3.313,94.6,0,0,861.1514,0,4.825,3.151,224,3.91,4.949,0.2047983,0,53.39,62.12,34.13,36.16
"2017-11-24 04:10:00",315878,0.109,125.4,-3.274,95.1,0,0,861.0607,0,5.621,3.143,223,3.9,4.939,0.1896216,0,53.39,62.12,34.13,36.16
"2017-11-24 04:20:00",315879,0.182,139.5,-3.338,95.1,0,0,861.0186,0,5.524,3.144,221,3.899,4.938,0.003792405,0,53.33,62.12,34.11,36.16
"2017-11-24 04:30:00",315880,0.193,126.5,-3.375,95.2,0,0,861.1893,0,5.529,3.144,280,3.892,4.931,0,0,53.33,62.06,34.11,36.15
"2017-11-24 04:40:00",315881,0.192,116.6,-3.348,95,0,0,861.2146,0,2.451,3.175,239,3.885,4.923,0,0,53.33,62.06,34.11,36.15
"2017-11-24 04:50:00",315882,0.126,97.9,-3.336,95.5,0,0,861.2651,0,1.306,3.186,240,3.884,4.923,0.113766,0,53.33,62.06,34.11,36.15
"2017-11-24 05:00:00",315883,0.13,101.6,-3.304,95.7,0,0,861.2673,0,3.789,3.161,222,3.885,4.923,0.06825946,0,53.33,62.06,34.11,36.15
"2017-11-24 05:10:00",315884,0.012,28.58,-3.268,95.9,0,0,861.3178,0,4.387,3.155,288,3.888,4.926,0.1251442,0,53.33,62.06,34.11,36.15
"2017-11-24 05:20:00",315885,0.101,47.76,-3.276,96.2,0,0,861.4907,0,3.741,3.162,202,3.886,4.925,0.1251432,0,53.33,62,34.11,36.13
"2017-11-24 05:30:00",315886,0.14,84.4,-3.325,96.6,0,0,861.4885,0,3.244,3.167,200,3.887,4.927,0,0,53.33,62,34.11,36.13
"2017-11-24 05:40:00",315887,0.061,26.04,-3.35,97.1,0,0.5,861.5202,0,3.295,3.166,222,3.883,4.923,0.02654523,0,53.28,62,34.1,36.13
"2017-11-24 05:50:00",315888,0.017,26,-3.247,97.1,0,0,861.5202,0.5,2.449,3.175,219,3.883,4.922,0.185817,0,53.28,62,34.1,36.13
"2017-11-24 06:00:00",315889,0.124,112.6,-3.28,97.6,0,0,861.497,0.5,5.035,3.149,200,3.882,4.922,0.1706485,0,53.28,62,34.1,36.13
"2017-11-24 06:10:00",315890,0.318,131.1,-3.352,98.1,0,0,861.5033,0,2.353,3.176,211,3.881,4.92,0,0,53.28,62,34.1,36.13
"2017-11-24 06:20:00",315891,0.212,115.1,-3.377,98.6,0,0,861.674,0,7.322,3.126,396,3.88,4.919,0,0,53.28,61.94,34.1,36.12
"2017-11-24 06:30:00",315892,0.188,84.8,-3.364,98.5,0,0,861.8721,0,7.148,3.128,362,3.88,4.918,0.2616573,0,53.28,61.94,34.1,36.12
"2017-11-24 06:40:00",315893,0.302,80.1,-3.342,98.3,0.2163135,0,862.0239,0,5.782,3.141,200,3.879,4.918,0.7318819,2.025,53.28,61.94,34.1,36.12
"2017-11-24 06:50:00",315894,0.36,48.77,-3.3,98.5,0.3500346,0,862.0998,0,5.781,3.141,191,3.879,4.918,1.13764,3.64,53.28,61.94,34.1,36.12
"2017-11-24 07:00:00",315895,0.129,92.4,-3.235,98.7,0.6843373,0.5,862.2726,0.5,6.079,3.138,195,3.876,4.918,1.6875,2.502,53.22,61.94,34.08,36.12
"2017-11-24 07:10:00",315896,0.106,77.53,-3.223,98.6,1.305747,0,862.2789,0,5.955,3.139,202,3.873,4.918,2.938904,2.267,53.22,61.94,34.08,36.12
"2017-11-24 07:20:00",315897,0.036,46.86,-3.124,99,1.372607,0,862.3632,0,5.93,3.139,223,3.866,4.918,3.166432,2.323,53.22,61.88,34.08,36.11
"2017-11-24 07:30:00",315898,0.059,145.6,-3.116,99.1,2.135604,0,862.5402,0,6.029,3.138,201,3.855,4.918,4.706038,2.216,53.22,61.88,34.08,36.11
"2017-11-24 07:40:00",315899,0.016,212.2,-3.055,99.2,3.881844,0.5,862.7405,0.5,6.626,3.131,198,3.855,4.918,8.566431,2.206,53.22,61.82,34.08,36.09
"2017-11-24 07:50:00",315900,0.104,40.52,-2.981,98.7,5.946655,0,862.7932,0.5,5.93,3.139,201,3.852,4.918,13.76165,2.306,53.22,61.88,34.08,36.11
"2017-11-24 08:00:00",315901,0.197,45.4,-3.083,98.9,6.513002,0,862.7848,0,6.377,3.134,204,3.843,4.918,14.58076,2.234,53.16,61.82,34.07,36.09
"2017-11-24 08:10:00",315902,0.172,353.5,-3.16,98.9,6.343885,0.5,862.8986,0,5.88,3.14,198,3.838,4.918,14.23567,2.242,53.22,61.88,34.08,36.11
"2017-11-24 08:20:00",315903,0.712,303.7,-3.286,97.3,5.683145,0,863.0272,0,6.925,3.13,195,3.837,4.918,11.47121,2.006,53.16,61.88,34.07,36.11
"2017-11-24 08:30:00",315904,0.812,288.7,-3.557,95,5.569089,0,863.0292,0,6.627,3.134,213,3.844,4.918,11.09578,1.996,53.22,61.82,34.08,36.09
"2017-11-24 08:40:00",315905,0.212,91.7,-3.416,96.6,6.434343,0,863.0082,1,7.769,3.122,196,3.844,4.918,15.14958,2.343,53.16,61.82,34.07,36.09
"2017-11-24 08:50:00",315906,0.275,303.4,-3.379,97.1,7.417586,0,863.0124,0.5,6.925,3.13,180,3.837,4.918,18.11123,2.446,53.22,61.82,34.08,36.09
"2017-11-24 09:00:00",315907,0.456,298.2,-3.504,96.5,10.5207,0.5,863.0461,0,9.46,3.106,194,3.849,4.918,26.29466,2.501,53.16,61.82,34.07,36.09
"2017-11-24 09:10:00",315908,0.286,283.5,-3.527,95.3,14.9335,0,863.0419,0.5,9.21,3.108,244,3.85,4.918,37.7014,2.523,53.16,61.82,34.07,36.09
"2017-11-24 09:20:00",315909,0.243,199,-3.495,94.7,10.5797,0.5,863.1072,0,9.06,3.109,232,3.839,4.914,25.91165,2.44,53.16,61.82,34.07,36.09
"2017-11-24 09:30:00",315910,0.132,94.4,-3.429,95.4,11.43315,0,863.1241,0.5,10.25,3.097,194,3.84,4.916,28.31586,2.465,53.16,61.82,34.07,36.09
"2017-11-24 09:40:00",315911,0.051,53.73,-3.284,95.8,19.77499,0.5,863.0419,0.5,10.16,3.096,203,3.834,4.902,52.08496,2.63,53.16,61.82,34.07,36.09
"2017-11-24 09:50:00",315912,0.031,25.89,-3.08,95.1,26.42171,0,863.0292,0,10.41,3.093,214,3.878,4.866,70.89774,2.683,53.16,61.76,34.07,36.08
"2017-11-24 10:00:00",315913,0.057,349.7,-3.012,95.3,16.14485,0,863.0988,0.5,11.25,3.084,195,3.881,4.869,41.74381,2.584,53.16,61.46,34.07,36.01
"2017-11-24 10:10:00",315914,0.145,358,-2.877,96.3,16.94718,0,863.2063,0,11.45,3.081,174,3.881,4.899,44.27317,2.61,53.11,61.34,34.06,35.98
"2017-11-24 10:20:00",315915,0.204,71.6,-2.809,96.7,18.894,0.5,863.0166,0,11.75,3.078,187,3.883,4.914,50.70462,2.667,53.11,61.34,34.06,35.98
"2017-11-24 10:30:00",315916,0.137,53.05,-2.668,96.6,25.19462,0,863.0272,0.5,11.7,3.078,196,3.908,4.916,67.90575,2.683,53.11,61.28,34.06,35.97
"2017-11-24 10:40:00",315917,0.382,284.5,-2.816,96.5,19.76319,0.5,863.0714,0.5,11.9,3.078,195,3.922,4.919,52.55139,2.646,53.11,61.28,34.06,35.97
"2017-11-24 10:50:00",315918,0.481,283.8,-3.039,96.5,29.94959,0.5,863.0798,0,11,3.087,200,3.929,4.918,80.34016,2.681,53.05,61.28,34.04,35.97
"2017-11-24 11:00:00",315919,0.306,263.4,-2.755,95.6,41.22542,0,863.1199,0,10.51,3.09,205,3.959,4.944,117.7723,2.847,53.11,61.28,34.06,35.97
"2017-11-24 11:10:00",315920,0.278,273.4,-2.463,94.3,44.45439,0.5,863.084,0.5,12.2,3.071,198,3.913,4.996,128.6936,2.892,53.11,61.28,34.06,35.97
"2017-11-24 11:20:00",315921,0.195,269.4,-2.243,93.7,61.8106,0,863.0019,0,12.43,3.068,204,3.884,4.994,183.2207,2.954,53.11,61.28,34.06,35.97
"2017-11-24 11:30:00",315922,0.156,287.7,-2.133,91.9,57.60625,0.5,862.8188,0,12.05,3.074,193,3.871,4.924,167.0132,2.865,53.05,61.22,34.04,35.96
"2017-11-24 11:40:00",315923,0.1,348.5,-2.608,93.3,22.65374,0,862.7415,0,12.16,3.073,193,3.879,4.919,59.71046,2.627,53.05,61.22,34.04,35.96
"2017-11-24 11:50:00",315924,0.178,341.8,-2.645,95.3,21.32672,0.5,862.5773,0,12.15,3.073,218,3.862,4.921,58.39765,2.722,53.05,61.22,34.04,35.96
"2017-11-24 12:00:00",315925,0.175,1.837,-2.612,95.9,24.01797,0,862.4456,0,12.03,3.075,196,3.833,4.897,69.91349,2.906,53.05,61.22,34.04,35.96
"2017-11-24 12:10:00",315926,0.227,332.1,-2.753,96.5,23.55202,0,862.4426,0,12.64,3.069,192,3.809,4.886,68.34954,2.899,53.05,61.22,34.04,35.96
"2017-11-24 12:20:00",315927,0.243,351.2,-2.813,97.1,16.32845,0,862.4356,0,10.7,3.089,209,3.798,4.891,46.49577,2.834,53.05,61.22,34.04,35.96
"2017-11-24 12:30:00",315928,0.059,355.1,-2.518,97.5,36.84356,0.5,862.4776,0.5,11.86,3.074,201,3.794,4.882,110.7653,3.001,53.05,61.22,34.04,35.96
"2017-11-24 12:40:00",315929,0.228,38.44,-2.255,94.7,51.02478,0,862.4713,0.5,12.9,3.064,190,3.819,4.832,157.938,3.092,53.05,61.22,34.04,35.96
"2017-11-24 12:50:00",315930,0.419,82,-2.19,93.1,44.96999,0,862.4396,0,13.08,3.062,195,3.903,4.83,132.5771,2.936,53,61.22,34.03,35.96
"2017-11-24 13:00:00",315931,0.286,43.03,-2.307,91.4,31.03235,0.5,862.446,0,13.02,3.064,195,3.918,4.83,89.9566,2.875,53,61.16,34.03,35.94
"2017-11-24 13:10:00",315932,0.12,12.78,-2.423,92.1,26.06277,0,862.4417,0,13.25,3.061,196,3.91,4.83,76.72657,2.941,53,61.16,34.03,35.94
"2017-11-24 13:20:00",315933,0.216,32.91,-2.455,92.1,24.86362,0,862.4417,0,13.45,3.059,173,3.899,4.83,73.95926,2.975,53,61.16,34.03,35.94
"2017-11-24 13:30:00",315934,0.261,339.5,-2.603,93.1,30.88295,0.5,862.4417,0.5,13.5,3.059,193,3.86,4.831,93.31149,3.019,53,61.16,34.03,35.94
"2017-11-24 13:40:00",315935,0.262,6.846,-2.354,94.4,33.88278,0,862.4417,0,13.4,3.059,194,3.903,4.83,104.2822,3.077,53,61.16,34.03,35.94
"2017-11-24 13:50:00",315936,0.347,52.43,-2.312,93.5,32.23936,0,862.446,0,13.05,3.063,172,3.9,4.83,96.96586,3.003,53,61.16,34.03,35.94
"2017-11-24 14:00:00",315937,0.478,79.49,-2.54,94.1,22.41422,0,862.6335,0,12.92,3.065,185,3.897,4.83,64.86883,2.894,53,61.16,34.03,35.94
"2017-11-24 14:10:00",315938,0.295,34.47,-2.446,94.4,28.98397,0.5,862.6904,0,12.75,3.066,177,3.883,4.83,90.07033,3.105,53,61.1,34.03,35.93
"2017-11-24 14:20:00",315939,0.183,76.47,-2.377,94.5,32.7662,0,862.6946,0,13.1,3.062,190,3.895,4.83,102.0494,3.109,52.94,61.1,34.02,35.93
"2017-11-24 14:30:00",315940,0.143,36.28,-2.21,93.9,26.69576,0,862.6946,0,13.05,3.062,195,3.905,4.83,81.65087,3.058,52.94,61.16,34.02,35.94
"2017-11-24 14:40:00",315941,0.167,37.83,-2.106,93.2,28.71269,0,862.7999,0,12.66,3.065,171,3.92,4.833,90.00588,3.132,52.94,61.1,34.02,35.93
"2017-11-24 14:50:00",315942,0.169,19.27,-2.144,92.2,20.22823,0,862.9454,0,12.85,3.064,190,3.895,4.83,60.89603,2.988,52.94,61.1,34.02,35.93
"2017-11-24 15:00:00",315943,0.143,79.11,-2.223,92.9,16.50105,0,862.9474,0,12.78,3.065,181,3.883,4.83,49.08378,2.966,52.94,61.16,34.02,35.94
"2017-11-24 15:10:00",315944,0.277,58.41,-2.321,93.7,13.28104,0,863.057,0,12.92,3.064,194,3.849,4.851,39.22381,2.953,52.94,61.1,34.02,35.93
"2017-11-24 15:20:00",315945,0.258,66.24,-2.442,94.2,6.844966,0,863.2045,0,12.95,3.064,172,3.862,4.868,19.09824,2.78,52.94,61.04,34.02,35.92
"2017-11-24 15:30:00",315946,0.289,36.49,-2.604,95.1,5.185819,0,863.3836,0,13.25,3.062,194,3.84,4.886,13.07081,2.517,52.94,61.1,34.02,35.93
"2017-11-24 15:40:00",315947,0.072,101.6,-2.68,95.8,3.809749,0.5,863.4531,0,13.39,3.061,193,3.803,4.914,9.700756,2.532,52.94,61.1,34.02,35.93
"2017-11-24 15:50:00",315948,0.161,75.57,-2.689,96.4,8.374371,0,863.4573,0.5,13.35,3.061,192,3.792,4.915,26.32358,3.137,52.88,61.1,34,35.93
"2017-11-24 16:00:00",315949,0.058,66.93,-2.67,96.4,7.183087,0,863.4531,0,13.32,3.063,192,3.792,4.915,22.15745,3.029,52.94,61.1,34.02,35.93
"2017-11-24 16:10:00",315950,0.101,63.61,-2.859,96.9,2.815047,0,863.4763,0,13.39,3.063,193,3.804,4.915,6.000897,2.088,52.94,61.1,34.02,35.93
"2017-11-24 16:20:00",315951,0.159,23.05,-2.957,97.8,0.9553859,0,863.7165,0,13.36,3.063,193,3.833,4.906,0.9818272,1.008,52.94,61.1,34.02,35.93
"2017-11-24 16:30:00",315952,0.089,240.5,-2.927,99,0.6015393,0,863.9545,0.5,13.59,3.061,185,3.849,4.856,0.3411755,0.574,52.88,61.1,34,35.93
"2017-11-24 16:40:00",315953,0.163,284.7,-3.225,98.2,0.8610268,0,864.0262,0.5,14.38,3.055,179,3.873,4.831,0.1630061,0.179,52.88,61.04,34,35.92
"2017-11-24 16:50:00",315954,0.176,177.9,-3.268,98.3,0.5858127,0,864.0241,0.5,14.53,3.053,192,3.876,4.828,0.06823509,0.094,52.88,61.04,34,35.92
"2017-11-24 17:00:00",315955,0.218,109.3,-3.344,98.5,0.4442741,0,863.9798,0,14.68,3.052,192,3.876,4.799,0,0,52.88,61.04,34,35.92
"2017-11-24 17:10:00",315956,0.025,49.71,-3.289,98.3,0.08256496,0,864.1442,0,14.67,3.052,192,3.88,4.781,0,0,52.88,61.04,34,35.92
"2017-11-24 17:20:00",315957,0.08,170.1,-3.269,98.4,0,0,864.3191,0.5,14.63,3.052,191,3.895,4.815,0,0,52.88,61.04,34,35.92
"2017-11-24 17:30:00",315958,0.097,93.3,-3.254,99,0,0,864.4611,0,14.5,3.053,192,3.883,4.852,0,0,52.83,61.04,33.99,35.92
"2017-11-24 17:40:00",315959,0.066,83.8,-3.233,99.8,0,0.5,864.4566,0,14.54,3.053,170,3.89,4.885,0,0,52.88,61.04,34,35.92
"2017-11-24 17:50:00",315960,0.091,329.9,-3.253,100,0,0,864.5173,0,14.53,3.053,187,3.872,4.908,0,0,52.88,60.98,34,35.9
"2017-11-24 18:00:00",315961,0.14,226.4,-3.247,100,0,0,864.6745,0,12.84,3.07,182,3.876,4.913,0,0,52.88,60.98,34,35.9
"2017-11-24 18:10:00",315962,0.115,58.31,-3.304,100,0,0,864.767,0,14.38,3.055,193,3.879,4.917,0,0,52.83,60.98,33.99,35.9
"2017-11-24 18:20:00",315963,0.059,82.7,-3.306,100,0,0.5,864.7933,0,14.38,3.055,192,3.879,4.918,0,0,52.88,60.92,34,35.89
"2017-11-24 18:30:00",315964,0.011,48.7,-3.269,99.8,0,0,864.8002,0,13.98,3.059,194,3.879,4.918,0,0,52.83,60.92,33.99,35.89
"2017-11-24 18:40:00",315965,0.158,40.37,-3.264,99.6,0,0,864.8421,0,13.88,3.059,194,3.879,4.918,0.03033704,0,52.88,60.92,34,35.89
"2017-11-24 18:50:00",315966,0.041,40.65,-3.15,99.9,0,0.5,864.97,0,13.44,3.063,195,3.88,4.918,0.01137639,0,52.83,60.92,33.99,35.89
"2017-11-24 19:00:00",315967,0,0,-3.088,99.8,0,0,865.0611,0.5,13.88,3.059,190,3.879,4.918,0.1213482,0,52.83,60.92,33.99,35.89
"2017-11-24 19:10:00",315968,0,325.8,-3.127,99.7,0,0.5,865.0632,0,14.26,3.055,195,3.875,4.918,0,0,52.83,60.92,33.99,35.89
"2017-11-24 19:20:00",315969,0.002,149.8,-3.123,99.7,0,0,865.1707,0,13.59,3.062,195,3.875,4.918,0,0,52.83,60.86,33.99,35.88
"2017-11-24 19:30:00",315970,0,0,-3.203,99.6,0,0,865.2718,0,14.13,3.057,202,3.87,4.918,0,0,52.83,60.86,33.99,35.88
"2017-11-24 19:40:00",315971,0,0,-3.244,99.5,0,0,865.1875,0,14.43,3.054,194,3.885,4.918,0,0,52.83,60.86,33.99,35.88
"2017-11-24 19:50:00",315972,0.099,128.5,-3.351,99.3,0.2005814,0.5,865.1454,0,14.38,3.055,199,3.867,4.918,0,0,52.83,60.86,33.99,35.88
"2017-11-24 20:00:00",315973,0.03,124.1,-3.352,99.4,0.003932969,0,865.3666,0.5,14.58,3.053,194,3.869,4.918,0,0,52.83,60.86,33.99,35.88
"2017-11-24 20:10:00",315974,0,0,-3.355,99.2,0,0,865.5374,0,15,3.049,196,3.839,4.918,0.007584261,0,52.83,60.86,33.99,35.88
"2017-11-24 20:20:00",315975,0.068,68.97,-3.367,99.3,0,0.5,865.567,0,14.68,3.052,207,3.848,4.918,0.04550556,0,52.83,60.92,33.99,35.89
"2017-11-24 20:30:00",315976,0.178,78.9,-3.381,99.2,0,0,865.7081,0,15.72,3.042,197,3.855,4.918,0,0,52.83,60.86,33.99,35.88
"2017-11-24 20:40:00",315977,0.053,70.85,-3.385,99.3,0.007865938,0,865.8493,0.5,15.97,3.039,205,3.838,4.918,0,0,52.77,60.86,33.98,35.88
"2017-11-24 20:50:00",315978,0.095,127.1,-3.357,98.7,0,0,866.0622,0,15.87,3.04,200,3.842,4.918,0,0,52.77,60.8,33.98,35.86
"2017-11-24 21:00:00",315979,0.109,92.6,-3.384,98.5,0,0.5,866.0727,0,15.47,3.044,254,3.85,4.918,0.007584261,0,52.77,60.8,33.98,35.86
"2017-11-24 21:10:00",315980,0.072,55.44,-3.358,98.7,0,0,866.1002,0,15.17,3.047,248,3.848,4.918,0.03033704,0,52.77,60.8,33.98,35.86
"2017-11-24 21:20:00",315981,0.095,64.97,-3.355,99,0,0,866.0853,0,15.47,3.044,206,3.841,4.918,0.1213482,0,52.77,60.8,33.98,35.86
"2017-11-24 21:30:00",315982,0.203,42.72,-3.319,99.4,0,0,866.1002,0,16.07,3.038,216,3.85,4.918,0.0758426,0,52.77,60.8,33.98,35.86
"2017-11-24 21:40:00",315983,0.178,60.97,-3.366,99.7,0,0,866.0727,0,16.37,3.035,225,3.845,4.918,0,0,52.77,60.8,33.98,35.86
"2017-11-24 21:50:00",315984,0.047,26.32,-3.293,99.8,0,0.5,866.1191,0,16.42,3.034,218,3.844,4.918,0,0,52.77,60.8,33.98,35.86
"2017-11-24 22:00:00",315985,0.171,90.6,-3.282,99.7,0,0,866.079,0.5,16.44,3.034,204,3.848,4.918,0.00379213,0,52.77,60.8,33.98,35.86
"2017-11-24 22:10:00",315986,0.077,97.6,-3.287,99.3,0,0,866.2245,0,16.37,3.035,203,3.845,4.918,0,0,52.77,60.8,33.98,35.86
"2017-11-24 22:20:00",315987,0.05,115.1,-3.352,98.5,0.1179891,0,866.273,0,16.32,3.036,202,3.863,4.918,0,0,52.77,60.8,33.98,35.86
"2017-11-24 22:30:00",315988,0.096,113,-3.41,97.5,0.09439125,0,866.1928,0,16.32,3.036,211,3.86,4.92,0,0,52.77,60.8,33.98,35.86
"2017-11-24 22:40:00",315989,0.303,127.9,-3.546,97.5,0,0,866.0727,0,16.26,3.037,216,3.863,4.922,0,0,52.72,60.8,33.96,35.86
"2017-11-24 22:50:00",315990,0.14,146.1,-3.544,98.2,0,0,866.079,0,16.22,3.037,214,3.872,4.925,0,0,52.77,60.8,33.98,35.86
"2017-11-24 23:00:00",315991,0.165,109.9,-3.437,98.1,0,0,866.2772,0,16.22,3.037,208,3.875,4.931,0,0,52.77,60.8,33.98,35.86
"2017-11-24 23:10:00",315992,0.195,55.32,-3.46,97.9,0,0,866.3193,0,16.61,3.033,224,3.877,4.925,0.1251403,0,52.72,60.74,33.96,35.85
"2017-11-24 23:20:00",315993,0.23,43.72,-3.403,97.9,0,0,866.235,0,16.57,3.033,206,3.878,4.927,0.1327246,0,52.77,60.8,33.98,35.86
"2017-11-24 23:30:00",315994,0.039,104.7,-3.358,97.9,0,0,866.0664,0,16.69,3.032,240,3.879,4.932,0.00379213,0,52.77,60.8,33.98,35.86
"2017-11-24 23:40:00",315995,0.239,101,-3.377,97.9,0,0,866.0727,0,16.81,3.031,205,3.878,4.927,0,0,52.77,60.74,33.98,35.85
"2017-11-24 23:50:00",315996,0.112,99.8,-3.42,98.5,0,0,866.0727,0,16.76,3.031,199,3.877,4.932,0,0,52.72,60.74,33.96,35.85
